This is the latest recevied weather packets stored in our database for station/object N4JTC. If no packets are shown the sender has not sent any weather packets the latest 10 day(s).
| Time | Temp. | Humidity | Pressure | Rain* | Wind** | Luminosity | Snow |
|---|---|---|---|---|---|---|---|
| 1777575603 | 27.78° C | 68% | 1012.2 hPa | 0 mm | - | 189 W/m² | - |
| 1777575303 | 28.33° C | 68% | 1012.1 hPa | 0 mm | - | 300 W/m² | - |
| 1777575003 | 27.78° C | 68% | 1012 hPa | 0 mm | - | 418 W/m² | - |
| 1777574703 | 28.33° C | 68% | 1012.1 hPa | 0 mm | - | 404 W/m² | - |
| 1777574103 | 28.89° C | 66% | 1012 hPa | 0 mm | - | 570 W/m² | - |
| 1777573503 | 30° C | 63% | 1012 hPa | 0 mm | - | 447 W/m² | - |
| 1777573204 | 30° C | 64% | 1011.9 hPa | 0 mm | - | 700 W/m² | - |
| 1777572903 | 29.44° C | 64% | 1012 hPa | 0 mm | - | 989 W/m² | - |
| 1777572604 | 29.44° C | 63% | 1012.1 hPa | 0 mm | - | 999 W/m² | - |
| 1777572303 | 29.44° C | 63% | 1012.5 hPa | 0 mm | - | 723 W/m² | - |
| 1777572003 | 29.44° C | 63% | 1012.3 hPa | 0 mm | - | 467 W/m² | - |
| 1777571703 | 28.89° C | 63% | 1012.4 hPa | 0 mm | - | 1097 W/m² | - |
| 1777571403 | 29.44° C | 63% | 1012.2 hPa | 0 mm | - | 555 W/m² | - |
| 1777571103 | 30° C | 63% | 1012.3 hPa | 0 mm | - | 956 W/m² | - |
| 1777570804 | 29.44° C | 64% | 1012.1 hPa | 0 mm | - | 934 W/m² | - |
| 1777570503 | 28.89° C | 62% | 1012.5 hPa | 0 mm | - | 1014 W/m² | - |
| 1777569903 | 29.44° C | 64% | 1012.6 hPa | 0 mm | - | 530 W/m² | - |
| 1777569603 | 28.89° C | 63% | 1012.3 hPa | 0 mm | - | 669 W/m² | - |
| 1777569303 | 28.33° C | 64% | 1012.6 hPa | 0 mm | - | 774 W/m² | - |
| 1777569003 | 28.33° C | 65% | 1012.6 hPa | 0 mm | - | 872 W/m² | - |
| 1777568702 | 28.33° C | 64% | 1013.1 hPa | 0 mm | - | 885 W/m² | - |
| 1777568403 | 28.33° C | 64% | 1013 hPa | 0 mm | - | 437 W/m² | - |
| 1777568103 | 28.89° C | 64% | 1013 hPa | 0 mm | - | 576 W/m² | - |
| 1777567803 | 28.33° C | 64% | 1013.2 hPa | 0 mm | - | 565 W/m² | - |
| 1777567503 | 28.33° C | 65% | 1013.3 hPa | 0 mm | - | 974 W/m² | - |
* Rain latest hour (hover to see other rain measurements)
** Current wind speed in m/s (hover to see current wind gust speed)